Total_Precipitation_Accumulation
1.82 2.14 2.59 3.29 3.76 3.93 4.02 4.19 4.21 4.28 4.31 4.29 4.30 4.48 4.68 4.72 4.70 4.81 4.83 4.69 4.60 4.75 5.06 5.08 4.93 4.63 4.33 4.13 4.13 4.12 3.90 3.59 3.45 3.50 3.30 2.93 2.59 2.51 2.41 2.36 2.33 2.16 2.16
1.70 2.14 2.60 3.05 3.34 3.69 3.90 4.12 4.15 4.32 4.58 4.97 5.49 5.76 5.88 5.77 5.61 5.48 5.39 5.26 5.15 5.23 5.34 5.42 5.09 4.75 4.57 4.30 4.06 4.01 3.85 3.57 3.53 3.57 3.62 3.23 2.94 2.47 2.13 2.21 2.20 2.12 2.15
1.69 2.02 2.24 2.63 2.92 3.31 3.65 3.91 4.26 4.67 5.17 5.84 6.64 6.97 6.70 6.27 6.07 5.74 5.66 5.44 5.21 5.18 5.27 5.01 4.78 4.59 4.42 4.22 4.00 3.99 3.95 3.60 3.48 3.59 3.80 3.48 3.12 2.74 2.40 2.18 2.09 2.15 2.17
1.67 1.81 2.07 2.38 2.58 2.96 3.42 3.87 4.43 5.04 5.69 6.30 6.79 7.02 6.88 6.57 6.25 5.81 5.41 5.03 4.72 4.53 4.43 4.31 4.10 4.02 3.91 3.74 3.57 3.61 3.69 3.58 3.34 3.26 3.11 3.05 2.91 2.85 2.60 2.36 2.18 2.15 2.16
1.55 1.68 1.86 2.12 2.44 2.89 3.36 3.85 4.35 5.07 5.56 6.11 6.54 6.79 6.77 6.63 6.22 5.53 4.87 4.45 4.11 3.86 3.58 3.38 3.29 3.31 3.28 3.09 2.93 2.94 3.01 3.00 2.95 2.92 2.74 2.70 2.66 2.59 2.49 2.43 2.36 2.29 2.12
1.68 1.69 1.74 1.93 2.39 2.82 3.33 3.69 4.03 4.74 5.43 5.94 6.30 6.61 6.57 6.32 5.68 4.97 4.39 4.02 3.72 3.47 3.20 3.02 2.89 2.85 2.77 2.61 2.48 2.46 2.51 2.55 2.59 2.67 2.67 2.57 2.48 2.38 2.37 2.24 2.20 2.23 2.08
1.58 1.59 1.80 1.96 2.47 2.88 3.17 3.43 3.68 4.09 4.62 5.09 5.41 5.63 5.68 5.43 4.98 4.52 4.03 3.68 3.43 3.17 2.84 2.51 2.37 2.30 2.31 2.30 2.27 2.25 2.25 2.30 2.33 2.30 2.31 2.33 2.24 2.25 2.31 2.31 2.20 2.12 2.02
1.53 1.53 1.76 2.00 2.19 2.45 2.70 3.00 3.21 3.46 3.72 3.98 4.25 4.23 4.24 4.22 4.01 3.62 3.17 2.89 2.61 2.44 2.29 2.09 1.96 1.93 1.96 1.99 2.02 1.97 1.92 1.96 2.09 2.10 2.19 2.17 2.10 2.18 2.23 2.33 2.42 2.39 2.19
1.49 1.57 1.76 1.90 1.97 2.12 2.34 2.53 2.66 2.83 2.89 2.86 2.86 2.93 2.92 2.96 2.95 2.80 2.50 2.17 1.91 1.76 1.73 1.71 1.69 1.56 1.57 1.67 1.73 1.70 1.68 1.77 1.83 1.87 1.96 2.01 1.99 2.06 2.06 2.14 2.32 2.58 2.51
1.50 1.59 1.70 1.86 1.96 1.96 2.13 2.25 2.24 2.27 2.33 2.36 2.26 2.16 2.23 2.28 2.30 2.26 2.08 1.88 1.69 1.53 1.44 1.43 1.39 1.30 1.28 1.36 1.48 1.50 1.57 1.68 1.66 1.64 1.67 1.69 1.73 1.93 2.02 2.07 2.21 2.45 2.60
1.62 1.69 1.65 1.67 1.67 1.72 1.76 1.83 1.85 1.87 1.90 1.91 1.93 1.88 1.83 1.80 1.81 1.85 1.81 1.68 1.58 1.46 1.38 1.29 1.29 1.29 1.21 1.20 1.28 1.28 1.33 1.46 1.49 1.45 1.47 1.51 1.61 1.75 1.79 1.92 2.04 2.28 2.54
1.72 1.78 1.71 1.55 1.55 1.65 1.70 1.70 1.71 1.68 1.71 1.69 1.72 1.77 1.63 1.55 1.56 1.58 1.56 1.44 1.40 1.36 1.29 1.23 1.21 1.18 1.15 1.14 1.12 1.10 1.12 1.23 1.27 1.30 1.35 1.27 1.34 1.53 1.65 1.78 1.87 2.02 2.21
1.87 1.98 1.89 1.68 1.60 1.60 1.60 1.51 1.49 1.49 1.34 1.32 1.44 1.55 1.44 1.34 1.35 1.34 1.31 1.30 1.26 1.23 1.15 1.11 1.06 1.00 1.04 1.08 1.08 1.04 1.04 1.05 1.07 1.16 1.24 1.26 1.39 1.47 1.59 1.72 1.78 1.93 1.97
1.81 1.94 1.93 1.72 1.68 1.55 1.49 1.35 1.27 1.27 1.23 1.20 1.22 1.29 1.31 1.28 1.24 1.22 1.18 1.12 1.06 1.04 0.98 0.93 0.92 0.93 0.91 0.89 0.92 0.94 0.97 1.02 1.03 1.06 1.12 1.19 1.31 1.45 1.64 1.68 1.78 1.93 2.05
1.83 1.94 1.87 1.67 1.66 1.63 1.53 1.31 1.19 1.19 1.19 1.22 1.24 1.22 1.21 1.13 1.13 1.15 1.12 0.99 0.95 0.89 0.87 0.85 0.85 0.86 0.83 0.76 0.79 0.89 0.94 1.05 1.09 1.11 1.10 1.08 1.15 1.32 1.46 1.52 1.72 1.99 2.14
1.87 1.83 1.75 1.69 1.68 1.67 1.60 1.39 1.21 1.14 1.16 1.25 1.28 1.23 1.20 1.13 1.10 1.12 1.12 1.05 1.02 0.98 0.90 0.89 0.85 0.79 0.69 0.71 0.73 0.78 0.91 1.03 1.07 1.15 1.14 1.01 0.99 1.03 1.09 1.18 1.33 1.61 1.87
2.12 2.04 1.90 1.86 1.87 1.76 1.58 1.47 1.29 1.20 1.18 1.21 1.19 1.24 1.23 1.15 1.07 1.02 1.12 1.12 1.11 1.02 0.97 0.92 0.85 0.80 0.72 0.66 0.61 0.62 0.76 0.95 1.05 1.12 1.14 0.97 0.83 0.97 1.06 1.08 1.09 1.20 1.43
2.12 2.04 1.93 1.93 1.87 1.75 1.65 1.55 1.37 1.21 1.14 1.14 1.08 1.10 1.13 1.14 1.09 1.08 1.11 1.12 1.16 1.13 1.02 0.91 0.88 0.88 0.69 0.62 0.58 0.59 0.70 0.88 0.94 0.96 1.00 1.06 1.05 0.99 1.03 1.09 1.21 1.37 1.48
1.92 1.90 1.86 1.89 1.81 1.68 1.57 1.51 1.39 1.20 1.06 1.03 1.02 0.97 0.95 0.97 0.99 0.98 1.06 1.17 1.19 1.12 0.96 0.88 0.92 0.88 0.71 0.63 0.60 0.60 0.72 0.84 0.86 0.79 0.78 0.84 0.91 0.88 0.95 1.13 1.38 1.57 1.75
1.70 1.67 1.64 1.65 1.65 1.58 1.50 1.46 1.42 1.27 1.05 0.91 0.84 0.85 0.90 0.90 0.92 0.97 1.05 1.07 1.11 1.08 0.91 0.81 0.81 0.77 0.69 0.60 0.54 0.58 0.65 0.78 0.81 0.86 0.83 0.85 0.86 0.87 0.98 1.19 1.53 1.75 1.84
1.60 1.47 1.37 1.36 1.38 1.36 1.32 1.30 1.25 1.12 0.87 0.75 0.72 0.74 0.77 0.79 0.80 0.93 0.99 0.98 0.93 0.96 0.93 0.86 0.79 0.73 0.62 0.54 0.52 0.53 0.55 0.65 0.77 0.83 0.91 0.95 0.95 0.90 1.00 1.21 1.47 1.70 1.76
1.50 1.35 1.27 1.17 1.10 1.06 1.12 1.17 1.06 0.86 0.72 0.67 0.66 0.67 0.68 0.61 0.63 0.85 0.92 0.91 0.93 0.89 0.88 0.92 0.89 0.75 0.62 0.49 0.40 0.40 0.44 0.53 0.78 0.90 0.92 0.94 0.95 0.94 1.06 1.19 1.48 1.75 1.89
1.31 1.17 1.06 0.95 0.87 0.93 1.01 1.00 0.90 0.75 0.64 0.67 0.71 0.67 0.61 0.62 0.60 0.66 0.73 0.80 0.88 0.81 0.76 0.78 0.77 0.67 0.56 0.46 0.32 0.28 0.32 0.43 0.59 0.78 0.93 0.92 0.88 1.01 1.28 1.46 1.63 1.84 1.98
1.13 1.00 0.96 0.88 0.85 0.83 0.78 0.75 0.63 0.61 0.65 0.70 0.73 0.70 0.66 0.62 0.56 0.54 0.50 0.53 0.60 0.63 0.68 0.70 0.67 0.61 0.53 0.41 0.33 0.31 0.33 0.40 0.50 0.65 0.85 0.99 1.06 1.20 1.49 1.73 1.86 1.94 1.91
0.96 0.85 0.90 0.88 0.81 0.71 0.65 0.60 0.56 0.58 0.73 0.76 0.68 0.64 0.58 0.54 0.53 0.47 0.42 0.40 0.42 0.47 0.52 0.55 0.57 0.55 0.46 0.34 0.34 0.33 0.34 0.40 0.50 0.62 0.84 1.02 1.12 1.33 1.56 1.70 1.72 1.71 1.67
0.79 0.77 0.80 0.80 0.73 0.65 0.62 0.55 0.49 0.50 0.61 0.67 0.64 0.56 0.53 0.51 0.46 0.45 0.42 0.35 0.32 0.32 0.33 0.32 0.33 0.34 0.36 0.33 0.31 0.33 0.37 0.43 0.52 0.64 0.92 1.11 1.20 1.37 1.52 1.62 1.58 1.51 1.47